Voltar ao catálogo

CZ-6A DEB

AtivoPO
NORAD 60655·DEBRIS·🇨🇳 China

Lançado Aug 6, 2024 de Taiyuan Satellite Launch Center

Loading…

Próximas Passagens (próximas 24 horas)

TLE

AtualizadoSource: Space-Track

Época: Sep 14, 2026, 11:19 UTC

1 60655U 24140BG  26257.47209218  .00000140  00000-0  57923-4 0  9993
2 60655  88.9946 264.4338 0037646 232.5724 127.2039 14.20720840108864

Acompanhe CZ-6A DEB em tempo real com AllMySat

Download on the App Store